Carson City, NV

12:21 AM PST on December 06, 2019 (GMT -0800)
Carson

Weather History for KCXP - November, 2019

Change the Weather History Date:

Tuesday, November 12, 2019

  Actual Average Record
Temperature  
Mean Temperature 48 °F -  
Max Temperature 69 °F 55 °F 68 °F (2016)
Min Temperature 28 °F 26 °F 14 °F (2018)
Degree Days  
Heating Degree Days 16    
Moisture  
Dew Point 23 °F    
Average Humidity 45    
Maximum Humidity 74    
Minimum Humidity 18    
Precipitation  
Precipitation 0.00 in - - ()
Sea Level Pressure  
Sea Level Pressure 30.22 in    
Wind  
Wind Speed 2 mph ()    
Max Wind Speed 12 mph    
Max Gust Speed -    
Visibility 10.0 miles    
Events      
Averages and records for this station are not official NWS values.
T = Trace of Precipitation, MM = Missing Value Source: Averaged Metar Reports

Daily Weather History Graph

Daily Weather History Graph

Search for Another Location

Airport or City:

Astronomy

Nov. 12, 2019 Rise Set
Actual Time 6:38 AM PST 4:46 PM PST
Civil Twilight 6:10 AM PST 5:15 PM PST
Nautical Twilight 5:38 AM PST 5:47 PM PST
Astronomical Twilight 5:06 AM PST 6:19 PM PST
Moon 5:16 PM PST (11/12) 6:35 AM PST (11/12)
Length of Visible Light 11h 05m
Length of Day
10h 08m
Full, 100% of the Moon is Illuminated
Nov 12
Full
Nov 19
Last Quarter
Nov 26
New
Dec 3
First Quarter
Dec 11
Full

Hourly Weather History & Observations

Time (PST) Temp. Windchill Dew Point Humidity Pressure Visibility Wind Dir Wind Speed Gust Speed Precip Events Conditions
12:15 AM 35.6 °F - 23.0 °F 60% 30.29 in 10.0 mi North - - N/A   Clear
12:35 AM 35.6 °F - 23.0 °F 60% 30.29 in 10.0 mi North - - N/A   Clear
12:55 AM 35.6 °F - 24.8 °F 65% 30.28 in 10.0 mi North - - N/A   Clear
1:15 AM 35.6 °F - 23.0 °F 60% 30.29 in 10.0 mi North - - N/A   Clear
1:35 AM 33.8 °F - 23.0 °F 65% 30.29 in 10.0 mi North - - N/A   Clear
1:55 AM 35.6 °F - 23.0 °F 60% 30.29 in 10.0 mi North - - N/A   Clear
2:15 AM 32.0 °F - 21.2 °F 64% 30.28 in 10.0 mi North - - N/A   Clear
2:35 AM 32.0 °F - 21.2 °F 64% 30.28 in 10.0 mi North - - N/A   Clear
2:55 AM 30.2 °F - 21.2 °F 69% 30.27 in 10.0 mi North - - N/A   Clear
3:15 AM 32.0 °F - 21.2 °F 64% 30.26 in 10.0 mi North - - N/A   Clear
3:35 AM 30.2 °F - 21.2 °F 69% 30.26 in 10.0 mi North - - N/A   Clear
3:55 AM 30.2 °F - 21.2 °F 69% 30.26 in 10.0 mi North - - N/A   Clear
4:15 AM 30.2 °F - 21.2 °F 69% 30.26 in 10.0 mi North - - N/A   Clear
4:35 AM 30.2 °F - 21.2 °F 69% 30.26 in 10.0 mi North - - N/A   Clear
4:55 AM 30.2 °F - 21.2 °F 69% 30.26 in 10.0 mi North - - N/A   Clear
5:15 AM 30.2 °F - 19.4 °F 64% 30.26 in 10.0 mi North - - N/A   Clear
5:35 AM 28.4 °F - 21.2 °F 74% 30.26 in 10.0 mi North - - N/A   Clear
5:55 AM 28.4 °F - 21.2 °F 74% 30.26 in 10.0 mi North - - N/A   Clear
6:15 AM 30.2 °F - 21.2 °F 69% 30.26 in 10.0 mi North - - N/A   Clear
6:30 AM 30.2 °F - 21.2 °F 69% 30.26 in 10.0 mi North - - N/A   Clear
6:55 AM 28.4 °F - 19.4 °F 69% 30.27 in 10.0 mi North - - N/A   Clear
7:10 AM 28.4 °F - 21.2 °F 74% 30.27 in 10.0 mi North - - N/A   Clear
7:35 AM 32.0 °F - 23.0 °F 69% 30.28 in 10.0 mi North - - N/A   Clear
7:55 AM 35.6 °F - 23.0 °F 60% 30.28 in 10.0 mi North - - N/A   Clear
8:15 AM 37.4 °F - 23.0 °F 56% 30.28 in 10.0 mi North - - N/A   Clear
8:35 AM 41.0 °F - 23.0 °F 49% 30.28 in 10.0 mi North - - N/A   Clear
8:55 AM 42.8 °F - 23.0 °F 46% 30.28 in 10.0 mi North - - N/A   Clear
9:15 AM 44.6 °F - 23.0 °F 43% 30.28 in 9.0 mi North - - N/A   Clear
9:35 AM 48.2 °F - 23.0 °F 37% 30.27 in 10.0 mi North - - N/A   Clear
9:55 AM 50.0 °F - 23.0 °F 35% 30.27 in 10.0 mi North - - N/A   Clear
10:10 AM 50.0 °F - 23.0 °F 35% 30.27 in 10.0 mi Calm Calm - N/A   Clear
10:35 AM - - - N/A% 30.26 in - North - - N/A   Unknown
10:55 AM 55.4 °F - 23.0 °F 29% 30.24 in 10.0 mi Calm Calm - N/A   Unknown
11:15 AM 57.2 °F - 24.8 °F 29% 30.23 in 10.0 mi Calm Calm - N/A   Clear
11:30 AM 57.2 °F - 24.8 °F 29% 30.22 in 10.0 mi Calm Calm - N/A   Clear
11:55 AM 60.8 °F - 24.8 °F 25% 30.21 in 10.0 mi South 3.5 mph - N/A   Clear
12:15 PM 60.8 °F - 24.8 °F 25% 30.20 in 10.0 mi Calm Calm - N/A   Clear
12:30 PM 64.4 °F - 24.8 °F 22% 30.19 in 10.0 mi Calm Calm - N/A   Clear
12:55 PM 64.4 °F - 24.8 °F 22% 30.18 in 10.0 mi Variable 3.5 mph - N/A   Clear
1:15 PM 64.4 °F - 24.8 °F 22% 30.17 in 10.0 mi East 3.5 mph - N/A   Clear
1:35 PM 64.4 °F - 24.8 °F 22% 30.16 in 10.0 mi Calm Calm - N/A   Clear
1:55 PM 66.2 °F - 24.8 °F 21% 30.16 in 10.0 mi Calm Calm - N/A   Clear
2:15 PM 66.2 °F - 26.6 °F 23% 30.15 in 10.0 mi East 6.9 mph - N/A   Clear
2:55 PM 69.8 °F - 24.8 °F 18% 30.14 in 10.0 mi East 9.2 mph - N/A   Clear
3:15 PM 68.0 °F - 26.6 °F 21% 30.15 in 10.0 mi East 11.5 mph - N/A   Clear
3:35 PM 66.2 °F - 26.6 °F 23% 30.14 in 10.0 mi East 10.4 mph - N/A   Clear
3:50 PM 66.2 °F - 24.8 °F 21% 30.15 in 10.0 mi East 9.2 mph - N/A   Clear
4:15 PM 64.4 °F - 24.8 °F 22% 30.15 in 10.0 mi East 9.2 mph - N/A   Clear
4:35 PM 60.8 °F - 24.8 °F 25% 30.15 in 10.0 mi East 9.2 mph - N/A   Clear
4:55 PM 60.8 °F - 24.8 °F 25% 30.14 in 10.0 mi East 10.4 mph - N/A   Clear
5:15 PM 60.8 °F - 24.8 °F 25% 30.15 in 10.0 mi NE 8.1 mph - N/A   Clear
5:35 PM 57.2 °F - 26.6 °F 31% 30.15 in 10.0 mi NNW 4.6 mph - N/A   Clear
5:55 PM 53.6 °F - 24.8 °F 33% 30.15 in 10.0 mi Calm Calm - N/A   Clear
6:10 PM 55.4 °F - 24.8 °F 31% 30.15 in 10.0 mi NW 4.6 mph - N/A   Clear
6:35 PM 55.4 °F - 24.8 °F 31% 30.16 in 10.0 mi Calm Calm - N/A   Clear
6:50 PM 51.8 °F - 24.8 °F 35% 30.16 in 10.0 mi Calm Calm - N/A   Clear
7:35 PM 50.0 °F - 23.0 °F 35% 30.17 in 10.0 mi Calm Calm - N/A   Clear
7:55 PM 48.2 °F - 23.0 °F 37% 30.18 in 10.0 mi Calm Calm - N/A   Clear
8:15 PM 48.2 °F - 23.0 °F 37% 30.18 in 10.0 mi Calm Calm - N/A   Clear
8:30 PM 48.2 °F - 23.0 °F 37% 30.18 in 10.0 mi Calm Calm - N/A   Clear
8:50 PM 46.4 °F - 23.0 °F 40% 30.18 in 10.0 mi Calm Calm - N/A   Clear
9:10 PM 44.6 °F - 23.0 °F 43% 30.18 in 10.0 mi Calm Calm - N/A   Clear
9:35 PM 44.6 °F - 23.0 °F 43% 30.18 in 10.0 mi Calm Calm - N/A   Clear
9:55 PM 42.8 °F - 21.2 °F 42% 30.18 in 10.0 mi Calm Calm - N/A   Clear
10:10 PM 42.8 °F 41.1 °F 23.0 °F 46% 30.19 in 10.0 mi NW 3.5 mph - N/A   Clear
10:35 PM 44.6 °F - 23.0 °F 43% 30.18 in 10.0 mi Calm Calm - N/A   Clear
10:55 PM 42.8 °F - 23.0 °F 46% 30.19 in 10.0 mi Calm Calm - N/A   Clear
11:15 PM 42.8 °F - 23.0 °F 46% 30.18 in 10.0 mi Calm Calm - N/A   Clear
11:35 PM 39.2 °F - 21.2 °F 49% 30.19 in 10.0 mi Calm Calm - N/A   Clear
11:55 PM 39.2 °F - 21.2 °F 49% 30.19 in 10.0 mi Calm Calm - N/A   Clear